This demonstration page uses our WeatherBlox Daily Observations layout. Learn more.

Left ArrowRight Arrow

39.51506, -84.39828

Hourly Observations for May 18, 2018

Temp ( °F °C ) Dew Point ( °F °C ) Humidity (%) Winds ( mph kmh ) Pressure ( in mb ) Visibility ( mi km ) Precip ( " mm )
12:15 am 00:15 Mostly Cloudy 68 20.1 63 17.4 85 85 NNE 9 15 29.97 1015 10 16 N/A
12:35 am 00:35 Clear 67 19.7 62 16.4 81 81 NNE 10 17 29.97 1015 10 16 N/A
12:55 am 00:55 Clear 66 19.1 60 15.7 81 81 NNE 8 13 29.97 1015 10 16 N/A
1:15 am 01:15 Clear 66 19 59 15 78 78 NNE 8 13 29.97 1015 10 16 N/A
1:35 am 01:35 Clear 65 18.5 59 15.1 81 81 NNE 7 11 29.97 1015 10 16 N/A
1:55 am 01:55 Clear 65 18.2 59 15 82 82 NNE 7 11 29.97 1015 10 16 N/A
2:15 am 02:15 Clear 65 18.3 59 15 81 81 NNE 7 11 29.94 1014 10 16 N/A
2:35 am 02:35 Clear 64 18 59 14.9 82 82 NNE 8 13 29.94 1014 10 16 N/A
2:55 am 02:55 Clear 65 18.1 58 14.5 80 80 NNE 8 13 29.94 1014 10 16 N/A
3:15 am 03:15 Clear 64 18 58 14.4 80 80 NNE 7 11 29.94 1014 10 16 N/A
3:35 am 03:35 Mostly Cloudy 65 18.1 58 14.2 78 78 NNE 7 11 29.94 1014 10 16 N/A
3:55 am 03:55 Partly Cloudy 64 17.8 57 14.1 79 79 NNE 7 11 29.94 1014 10 16 N/A
4:15 am 04:15 Clear 64 17.5 57 13.9 80 80 NNE 7 11 29.94 1014 10 16 N/A
4:35 am 04:35 Clear 63 17.1 57 13.7 81 81 NNE 8 13 29.94 1014 10 16 N/A
4:55 am 04:55 Clear 62 16.8 57 13.8 83 83 NNE 6 9 29.91 1013 10 16 N/A
5:15 am 05:15 Partly Cloudy 62 16.9 56 13.6 81 81 NNE 7 11 29.94 1014 10 16 N/A
5:35 am 05:35 Partly Cloudy 63 17 57 13.7 81 81 N 6 9 29.94 1014 10 16 N/A
5:55 am 05:55 Cloudy 63 17.3 57 14 81 81 N 7 11 29.94 1014 10 16 N/A
6:15 am 06:15 Cloudy 64 17.6 57 14.1 80 80 NNE 6 9 29.94 1014 10 16 N/A
6:35 am 06:35 Cloudy 64 17.9 58 14.4 80 80 NNE 7 11 29.94 1014 10 16 N/A
6:55 am 06:55 Cloudy 65 18.2 58 14.6 80 80 NE 8 13 29.94 1014 10 16 N/A
7:15 am 07:15 Cloudy 65 18.5 59 14.8 79 79 NNE 8 13 29.94 1014 10 16 N/A
7:35 am 07:35 Cloudy 66 18.8 59 15.2 80 80 NE 9 15 29.94 1014 10 16 N/A
7:55 am 07:55 Cloudy 66 18.9 60 15.4 80 80 NNE 8 13 29.97 1015 10 16 N/A
8:15 am 08:15 Cloudy 66 19 60 15.5 80 80 NE 12 19 29.97 1015 10 16 N/A
8:35 am 08:35 Cloudy 66 19 60 15.7 81 81 NE 10 17 29.97 1015 10 16 N/A
8:55 am 08:55 Cloudy 66 19.1 60 15.8 81 81 NE 10 17 29.97 1015 10 16 N/A
9:15 am 09:15 Cloudy 67 19.4 61 16 81 81 NE 9 15 29.97 1015 10 16 N/A
9:35 am 09:35 Cloudy 68 19.9 62 16.5 81 81 ENE 8 13 29.97 1015 10 16 N/A
9:55 am 09:55 Cloudy 69 20.4 63 17 81 81 ENE 13 20 29.97 1015 10 16 N/A
10:15 am 10:15 Cloudy 69 20.7 63 17.1 80 80 E 12 19 29.97 1015 10 16 N/A
10:35 am 10:35 Cloudy 69 20.5 63 17.3 82 82 ENE 12 19 29.97 1015 10 16 N/A
10:55 am 10:55 Cloudy 69 20.6 63 17.4 82 82 ENE 13 20 29.97 1015 10 16 N/A
11:15 am 11:15 Cloudy 69 20.4 64 17.6 84 84 ENE 12 19 29.97 1015 10 16 N/A
11:35 am 11:35 Cloudy 69 20.5 64 17.7 84 84 E 9 15 29.97 1015 10 16 N/A
11:55 am 11:55 Cloudy 69 20.7 64 17.8 84 84 ENE 13 20 29.97 1015 10 16 N/A
12:15 pm 12:15 Cloudy 69 20.6 64 17.6 83 83 E 13 20 29.97 1015 10 16 N/A
12:35 pm 12:35 Cloudy 69 20.7 65 18.2 86 86 ENE 14 22 29.97 1015 10 16 N/A
12:55 pm 12:55 Cloudy 70 21.2 65 18.5 85 85 ENE 10 17 29.94 1014 10 16 N/A
1:15 pm 13:15 Cloudy 70 21.3 65 18.5 84 84 E 8 13 29.97 1015 10 16 N/A
1:35 pm 13:35 Cloudy 70 20.9 65 18.4 86 86 ENE 10 17 29.94 1014 10 16 N/A
1:55 pm 13:55 Cloudy 70 21.1 65 18.5 85 85 ENE 10 17 29.94 1014 10 16 N/A
2:15 pm 14:15 Cloudy with Light Rain 71 21.6 66 18.9 85 85 ENE 10 17 29.94 1014 10 16 N/A
2:35 pm 14:35 Cloudy 72 22.2 66 18.8 81 81 ENE 16 26 29.94 1014 10 16 N/A
2:55 pm 14:55 Cloudy 72 22.4 66 19 81 81 ENE 10 17 29.94 1014 10 16 N/A
3:15 pm 15:15 Cloudy 73 22.7 66 19 80 80 ENE 10 17 29.91 1013 10 16 N/A
3:35 pm 15:35 Cloudy 74 23.2 66 19.1 78 78 ENE 13 20 29.91 1013 10 16 N/A
3:55 pm 15:55 Cloudy 73 22.7 65 18.3 76 76 E 14 22 29.91 1013 10 16 N/A
4:15 pm 16:15 Cloudy 73 22.8 66 18.7 78 78 ENE 12 19 29.91 1013 10 16 N/A
4:35 pm 16:35 Cloudy 74 23.2 66 18.9 77 77 ENE 14 22 29.91 1013 10 16 N/A
4:55 pm 16:55 Cloudy 74 23.4 66 19.1 77 77 E 13 20 29.91 1013 10 16 N/A
5:15 pm 17:15 Cloudy 73 23 66 18.8 77 77 ENE 14 22 29.91 1013 10 16 N/A
5:35 pm 17:35 Cloudy 73 22.9 66 19 79 79 ENE 9 15 29.91 1013 10 16 N/A
5:55 pm 17:55 Cloudy 73 22.5 66 18.7 79 79 ENE 13 20 29.91 1013 10 16 N/A
6:15 pm 18:15 Cloudy 73 22.5 65 18.5 78 78 E 15 24 29.88 1012 10 16 N/A
6:35 pm 18:35 Cloudy 72 22.3 65 18.5 79 79 ENE 10 17 29.88 1012 10 16 N/A
6:55 pm 18:55 Cloudy 72 22.2 65 18.5 80 80 ENE 8 13 29.88 1012 10 16 N/A
7:15 pm 19:15 Cloudy 72 22.3 65 18.5 79 79 E 8 13 29.88 1012 10 16 N/A
7:35 pm 19:35 Cloudy with Nearby Thunderstorms 71 21.6 66 18.8 84 84 E 8 13 29.88 1012 7 11 0.01 0.25
7:55 pm 19:55 Cloudy with Rain 70 20.9 66 19 89 89 ENE 5 7 29.88 1012 5 8 0.05 1.27
8:15 pm 20:15 Cloudy with Light Rain 69 20.7 66 19.1 91 91 NE 5 7 29.88 1012 10 16 0.02 0.51
8:35 pm 20:35 Cloudy with Light Rain 69 20.7 66 19.1 91 91 ENE 3 6 29.88 1012 10 16 0.03 0.76
8:55 pm 20:55 Cloudy with Light Rain 69 20.7 67 19.2 91 91 E 8 13 29.88 1012 7 11 0.04 1.02
9:15 pm 21:15 Cloudy with Light Rain 68 20.2 67 19.2 94 94 NE 6 9 29.88 1012 10 16 0.02 0.51
9:35 pm 21:35 Cloudy with Light Rain 68 20.2 67 19.3 95 95 NE 7 11 29.88 1012 10 16 0.03 0.76
9:55 pm 21:55 Cloudy with Light Rain 69 20.3 67 19.5 95 95 NE 5 7 29.88 1012 7 11 0.04 1.02
10:15 pm 22:15 Cloudy 68 20.2 67 19.4 95 95 ENE 3 6 29.88 1012 10 16 N/A
10:35 pm 22:35 Mostly Cloudy 69 20.3 67 19.3 94 94 ENE 6 9 29.88 1012 7 11 N/A
10:55 pm 22:55 Cloudy 69 20.4 67 19.3 93 93 E 6 9 29.88 1012 10 16 N/A
11:15 pm 23:15 Mostly Cloudy 69 20.5 67 19.3 93 93 E 5 7 29.88 1012 10 16 N/A
11:35 pm 23:35 Cloudy 69 20.6 67 19.2 92 92 E 7 11 29.88 1012 10 16 N/A
11:55 pm 23:55 Cloudy 69 20.6 67 19.2 92 92 E 8 13 29.88 1012 10 16 N/A

Powered by AerisWeather